Location: Newark
(34.6501°N, 117.8502°W)
Time: 11:00:11
(UTC+00:00)

Hubble Space Telescope - Visible Passes

Search period start: 20 October 2019 00:00
Search period end: 30 October 2019 00:00
Orbit: 536 x 540 km, 28.5° (Epoch: 19 October)

Date Brightness Start Highest point End Pass type
(mag) Time Alt. Az. Time Alt. Az. Time Alt. Az.
26 Oct 3.5 13:11:32 10° S 13:13:03 12° SSE 13:14:35 10° SE visible
27 Oct 3.3 13:00:05 10° SSW 13:02:22 14° SSE 13:04:39 10° SE visible
28 Oct 3.1 12:48:57 10° SSW 12:51:41 17° SSE 12:54:26 10° ESE visible
29 Oct 2.8 12:38:50 14° SSW 12:41:01 20° SSE 12:44:06 10° ESE visible
